Presure
180 176 196 168 168 173 199 197 245 224 203 184 197 203 191 189 158 178 166 143 142 163 162 153 151 155 146 151 161 149 151 150 171 174 168 146 143 146 146 165 165 169 164 156
223 202 184 195 205 193 253 220 216 165 182 198 181 175 180 168 179 165 168 160 162 141 152 147 153 153 165 165 157 154 168 167 149 149 160 170 163 159 158 171 167 175 149 169
163 215 209 201 195 248 228 201 183 195 196 172 187 176 170 156 145 169 146 162 137 151 152 152 153 160 154 144 152 153 152 160 158 173 153 140 161 151 166 172 172 158 150 170
196 198 199 158 243 199 199 189 196 203 166 169 174 162 169 152 170 143 162 144 144 153 152 151 147 142 141 137 150 147 155 141 164 145 149 175 163 141 145 173 144 164 164 170
153 196 182 254 164 197 202 198 168 173 163 187 155 185 143 168 144 160 144 148 153 151 151 151 143 157 167 150 157 153 136 130 131 134 143 145 137 166 163 169 172 173 168 170
189 177 259 231 204 189 198 180 172 175 180 163 172 167 167 143 156 161 145 153 152 153 159 163 163 166 156 139 129 152 155 115 156 146 159 151 140 164 168 170 167 165 165 156
202 266 234 213 185 193 181 174 188 190 155 165 174 145 168 130 159 161 160 151 155 155 155 165 169 152 146 150 133 140 110 151 163 141 137 138 132 129 167 146 169 173 164 172
263 253 227 198 195 194 182 169 179 153 154 174 163 163 154 146 161 166 169 152 160 151 165 152 174 146 139 121 129 137 137 156 149 142 134 125 118 152 118 110 157 168 157 159
254 230 214 187 178 172 172 184 181 169 172 156 155 157 170 152 167 140 154 155 150 146 152 148 143 146 125 155 141 157 126 129 142 140 128 130 125 132 114 142 130 153 156 146
248 220 160 193 193 171 179 184 173 161 177 177 150 167 147 164 147 150 156 155 161 167 174 147 157 147 125 146 137 138 144 123 139 134 123 132 134 125 152 156 166 119 147 160
230 221 184 171 177 185 187 163 155 176 174 162 153 162 154 159 145 152 158 161 156 148 149 145 155 124 144 128 127 127 135 124 128 118 137 131 141 123 129 131 114 158 144 161
233 144 177 180 179 176 175 161 165 178 172 125 133 165 161 149 152 150 150 164 156 149 151 150 140 136 125 162 126 124 116 141 106 127 110 113 129 139 124 146 172 172 166 177
233 199 179 184 193 188 165 173 174 170 135 157 147 166 155 152 160 155 146 142 163 144 161 149 149 128 135 123 133 123 116 121 127 141 114 141 120 115 122 126 153 126 160 173
213 230 173 178 191 182 172 165 172 150 165 123 152 158 158 149 160 155 148 148 161 158 157 146 135 146 128 135 128 126 128 143 139 129 160 160 121 118 123 114 153 150 158 166
222 189 186 190 188 186 167 162 171 136 165 134 149 161 157 151 157 143 157 159 155 126 148 158 156 166 162 145 129 133 121 150 145 144 138 159 117 129 101 147 144 164 164 163
264 200 180 182 173 173 180 177 178 139 134 152 128 161 161 164 150 158 150 156 157 148 161 161 161 161 158 155 151 152 130 135 148 149 155 140 117 137 73 82 148 161 170 151
179 212 189 189 190 176 157 175 164 169 164 147 129 152 130 133 150 146 142 158 154 153 154 150 154 164 114 157 152 150 140 143 158 152 157 130 134 137 116 147 149 111 162 150
223 203 168 188 189 181 180 138 130 138 135 132 140 141 137 122 152 121 157 138 125 141 155 117 154 157 161 110 124 149 159 131 161 145 129 143 129 117 150 159 160 165 148 139
134 197 184 195 178 187 136 168 171 117 124 122 136 144 148 157 131 141 162 134 135 114 127 124 122 122 133 146 131 147 157 100 104 129 126 134 138 159 156 159 165 159 157 141
212 207 147 124 179 183 166 168 123 116 119 125 156 157 152 144 151 135 129 155 80 79 82 93 125 84 148 90 128 151 127 141 146 158 135 148 156 152 157 161 162 155 154 145
191 145 154 203 120 173 176 168 157 166 124 129 136 143 150 139 168 150 107 121 103 146 145 133 131 132 126 148 156 102 156 140 132 147 157 151 151 159 164 153 152 127 154 157
155 144 156 147 182 142 128 154 148 148 134 147 133 140 137 143 140 107 132 124 127 106 141 125 128 140 127 139 143 142 143 148 143 153 146 152 160 72 134 145 146 133 134 135
166 175 149 140 134 72 141 160 164 87 126 160 119 143 128 136 141 141 128 156 140 140 140 121 132 128 141 162 166 162 152 145 150 143 158 161 145 166 150 135 174 128 133 133
149 161 153 175 148 133 119 143 163 168 174 150 151 147 149 162 135 139 129 151 155 149 148 137 148 101 136 72 143 150 145 150 144 154 160 159 134 162 139 141 136 129 135 164
163 166 163 181 144 80 137 155 145 189 134 173 139 162 141 135 153 175 170 147 151 128 126 145 143 147 148 133 151 147 150 161 159 161 135 151 148 133 132 142 157 131 133 174
150 167 181 154 150 164 177 61 149 150 144 146 158 151 147 155 156 162 153 137 137 150 150 152 152 152 153 153 153 160 156 156 161 139 169 155 172 147 133 130 140 177 156 148
Wind_Speed
22 21 22 21 21 21 24 26 46 46 44 32 41 40 41 39 19 31 29 13 14 23 21 17 13 10 11 7 6 3 3 4 4 4 2 15 18 22 24 16 18 15 21 31
19 23 24 23 25 25 41 38 47 21 34 47 38 30 39 28 35 27 27 19 25 12 18 12 12 10 11 11 7 5 6 5 7 10 7 8 9 17 19 16 16 16 33 24
23 24 25 26 26 42 43 47 36 46 48 31 41 29 29 25 17 29 17 25 14 18 16 15 13 13 11 9 6 6 6 4 4 9 10 20 15 21 18 16 17 29 35 24
27 27 27 25 44 32 44 44 46 47 27 27 36 28 31 21 31 17 26 18 17 21 19 19 17 14 14 12 7 6 6 9 6 14 15 14 13 26 30 20 32 27 26 26
29 31 31 45 28 47 53 51 29 33 24 44 23 38 20 35 21 28 19 21 26 23 21 20 19 13 8 10 8 9 10 14 17 18 19 20 28 20 26 26 26 26 27 30
34 32 41 51 53 50 53 49 35 40 45 32 37 33 36 20 28 33 23 32 27 25 17 13 12 11 12 12 14 8 8 20 11 19 16 20 27 23 25 28 31 32 33 34
35 39 49 52 52 53 49 41 45 47 27 32 40 22 38 17 34 32 31 29 27 22 20 12 11 14 14 12 15 14 24 11 11 19 21 24 29 31 26 32 31 32 34 39
34 48 53 59 58 58 53 37 50 27 28 45 43 36 33 26 36 30 25 33 23 26 12 20 9 18 16 23 19 16 16 12 15 20 25 30 34 30 35 38 34 36 34 39
40 52 57 60 54 47 47 53 50 48 42 40 38 35 38 31 33 26 37 34 31 29 26 25 24 20 22 16 16 14 23 25 21 23 26 30 33 34 40 40 38 43 44 41
43 57 49 61 62 50 53 58 51 40 49 47 33 45 26 39 36 37 36 36 22 16 13 25 21 21 23 17 20 21 21 28 23 26 31 31 34 39 36 37 33 43 46 44
56 62 60 42 60 61 61 40 37 51 50 46 41 44 42 44 37 42 35 30 33 34 30 29 23 24 23 26 27 28 25 30 30 37 30 33 33 41 42 36 47 41 39 42
61 38 58 65 61 55 60 42 46 52 52 35 26 47 47 40 46 43 39 30 37 35 33 32 29 28 28 25 30 32 36 30 36 34 44 46 38 37 45 44 43 46 43 48
64 67 61 66 69 66 53 54 55 58 42 44 42 48 48 43 42 44 36 30 33 33 33 33 32 30 31 32 31 35 39 38 38 36 43 37 47 49 47 49 48 42 45 52
69 75 56 66 72 67 61 51 53 46 52 44 41 50 51 41 45 47 38 38 38 35 37 34 31 34 31 34 36 35 35 39 41 42 40 39 48 42 52 54 52 55 53 55
72 73 71 75 71 73 56 55 57 41 57 47 48 52 53 49 50 36 48 44 41 41 39 40 40 38 40 38 36 40 39 40 43 44 46 45 50 51 44 51 53 58 58 49
63 78 69 72 61 67 72 65 64 42 47 59 47 55 60 56 48 53 46 47 48 46 49 44 43 44 44 42 40 41 39 42 46 48 47 45 52 52 27 34 56 59 63 46
66 80 78 80 80 70 55 68 67 64 67 63 52 62 36 51 49 49 39 49 48 46 47 44 47 45 46 46 47 41 40 45 48 47 46 51 53 58 47 62 60 44 58 49
81 83 64 84 85 76 72 57 60 63 56 59 63 62 48 53 54 47 55 52 45 35 47 51 48 45 53 37 47 47 52 42 53 50 52 57 57 52 65 65 65 68 48 57
68 87 78 87 71 80 60 77 76 65 64 62 62 66 58 59 48 57 64 49 53 56 48 49 50 50 40 53 53 49 55 37 38 45 56 59 62 63 67 67 70 64 64 59
89 93 72 64 78 81 81 82 69 70 72 74 74 78 71 51 56 63 44 57 21 27 28 32 50 23 53 34 54 54 46 52 56 63 59 63 61 66 69 69 68 65 65 63
90 79 73 92 59 80 86 84 75 84 81 81 73 76 76 55 74 68 43 58 38 52 55 52 56 48 55 61 61 50 63 56 57 65 68 68 69 72 72 61 61 64 70 78
87 83 80 77 81 68 36 79 87 82 75 86 74 72 70 62 59 44 54 56 56 42 56 52 51 60 61 59 60 59 61 64 64 71 65 72 73 36 53 59 66 62 71 68
91 86 84 84 73 24 89 91 87 28 75 93 74 77 66 68 65 64 58 64 59 55 57 62 60 65 67 75 76 76 72 71 72 66 78 77 56 78 62 62 81 71 74 74
75 96 90 96 81 87 83 86 93 96 95 91 88 84 84 87 69 68 62 66 67 64 64 58 65 37 69 32 72 74 73 77 68 80 80 77 57 77 62 60 67 74 74 81
99 99 95 94 89 23 86 92 88 96 86 103 90 95 81 75 82 96 93 72 72 63 63 68 69 73 75 64 74 72 77 84 83 82 58 71 72 69 70 70 83 74 76 95
69 94 109 76 97 98 101 36 92 91 91 94 97 92 90 92 88 92 81 71 71 77 77 80 81 81 83 81 82 88 83 80 83 53 90 81 92 65 75 76 78 95 76 80
Wind_Direction
207 206 195 207 203 200 183 179 154 151 151 170 150 140 146 143 183 150 162 216 225 161 155 178 171 141 198 168 153 200 247 298 115 89 193 309 313 304 307 301 276 309 304 300
187 197 201 194 192 187 159 162 156 196 174 149 167 168 163 180 150 162 160 169 162 220 185 195 161 173 168 168 180 193 153 166 294 300 295 356 304 294 310 336 310 349 306 318
217 190 191 192 189 166 164 161 173 161 153 181 157 160 164 189 206 160 225 160 242 190 175 170 172 169 175 211 206 220 246 224 242 6 292 305 317 296 341 330 322 320 313 330
203 197 194 222 173 184 171 177 164 159 194 192 175 191 175 199 157 227 168 227 229 178 185 189 194 215 222 234 228 244 250 280 319 288 295 344 311 312 306 326 321 312 314 331
229 202 197 177 215 174 165 164 195 188 188 158 197 158 213 164 209 175 231 201 190 198 203 202 216 195 182 221 231 246 271 285 292 297 288 306 312 318 326 318 323 332 330 337
206 209 188 183 172 179 169 184 194 191 175 198 175 173 169 226 199 184 224 197 201 203 192 199 207 205 202 227 255 259 275 299 288 281 303 299 306 320 324 324 326 330 332 326
207 189 186 180 187 175 187 193 173 167 203 205 173 220 176 231 194 185 190 206 202 205 204 213 223 210 208 233 249 261 303 278 312 285 305 312 317 323 320 331 327 335 334 337
200 186 186 181 178 175 189 202 183 207 213 178 194 190 214 236 190 182 175 208 194 215 199 206 235 218 224 266 264 264 271 285 272 286 302 312 316 318 315 315 326 331 328 334
199 188 188 187 196 202 202 181 184 203 192 211 218 192 181 223 185 249 211 210 220 237 217 224 233 233 252 262 249 268 280 293 277 285 298 303 306 312 304 322 315 326 326 325
199 196 197 188 184 204 195 192 200 216 186 185 227 189 216 191 230 228 214 217 222 219 253 233 232 241 262 247 262 263 274 285 285 290 300 304 310 305 323 324 321 310 318 325
200 198 195 211 204 195 188 214 217 195 195 210 204 198 221 206 247 225 219 217 218 233 237 241 245 261 251 263 267 273 277 286 289 297 300 304 305 305 313 316 309 314 316 325
202 231 209 202 203 212 205 221 222 194 198 230 222 204 205 237 233 236 238 222 226 237 237 238 246 256 267 255 270 274 282 282 304 293 303 303 307 314 310 317 323 326 322 331
206 205 215 202 200 196 218 205 211 211 224 227 214 208 226 239 218 232 253 259 234 262 239 248 251 263 264 266 270 274 284 286 290 290 295 298 298 305 302 309 322 318 321 327
208 204 223 212 203 207 218 224 218 218 220 230 232 229 224 243 224 235 246 254 239 252 249 255 265 262 262 268 275 275 287 283 286 287 299 302 292 303 299 303 320 316 322 321
209 211 213 205 208 207 227 224 210 223 218 227 229 221 228 231 230 248 242 242 246 250 259 255 259 263 262 264 273 277 277 289 294 294 294 300 292 298 299 312 313 318 319 317
213 208 217 216 220 221 216 211 207 231 225 229 237 223 228 227 247 240 251 246 250 257 252 253 260 261 266 268 272 275 281 293 295 294 295 291 289 307 315 307 313 313 314 314
217 209 213 211 212 223 217 212 222 217 220 239 239 239 227 241 238 246 240 245 254 253 254 260 266 262 275 275 274 281 284 293 289 293 290 294 302 307 308 310 310 313 314 311
209 211 225 213 216 219 209 233 232 235 233 244 243 243 233 243 238 254 250 249 250 264 267 264 259 267 268 286 276 282 285 297 291 296 300 302 299 303 306 306 308 310 304 307
230 216 221 210 222 210 235 224 217 249 251 250 247 245 248 251 244 250 241 247 260 263 251 257 265 272 279 272 279 291 288 289 299 300 294 301 302 299 305 307 307 308 308 307
217 216 226 234 227 218 222 224 243 251 252 246 239 244 252 238 241 247 255 251 293 295 287 282 267 285 280 291 281 287 289 295 297 294 298 299 296 304 303 304 306 306 311 310
221 229 227 220 236 224 220 226 231 224 248 251 243 246 248 246 248 254 258 261 277 270 272 271 270 280 271 282 284 280 287 297 292 301 297 300 304 301 302 305 295 295 304 306
228 227 226 232 225 232 222 231 234 232 240 246 255 251 256 253 254 266 256 258 262 272 275 274 278 282 277 283 288 293 297 300 301 300 301 302 298 311 301 297 294 290 300 294
230 228 228 230 224 257 236 231 229 247 250 242 261 255 258 261 259 260 259 266 264 265 271 278 282 282 284 274 274 277 292 298 295 297 294 295 295 297 292 286 299 296 296 296
241 229 230 228 227 232 239 240 233 235 234 248 252 258 259 251 261 264 263 266 269 268 272 273 274 277 284 281 290 288 291 290 293 291 292 295 279 296 285 290 291 294 292 310
227 232 231 229 232 236 237 237 243 231 250 238 254 249 256 260 265 252 258 271 274 274 276 279 279 282 283 284 286 289 289 285 290 292 275 290 286 282 286 291 296 293 294 304
228 236 225 235 231 232 229 265 240 244 248 250 250 254 262 261 262 261 267 267 269 273 276 277 279 281 283 285 285 284 288 289 290 277 290 290 292 288 284 291 288 302 303 302